TimeMDT,TemperatureF,Dew PointF,Humidity,Sea Level PressureIn,VisibilityMPH,Wind Direction,Wind SpeedMPH,Gust SpeedMPH,PrecipitationIn,Events,Conditions,WindDirDegrees,DateUTC
1:55 AM,37.4,26.6,65,30.25,10.0,SE,4.6,-,N/A,,Clear,140,2012-10-19 07:55:00
2:15 AM,35.6,28.4,75,30.25,10.0,ESE,8.1,-,N/A,,Clear,110,2012-10-19 08:15:00
2:35 AM,37.4,26.6,65,30.25,10.0,ESE,4.6,-,N/A,,Clear,110,2012-10-19 08:35:00
3:15 AM,35.6,24.8,65,30.23,10.0,Calm,Calm,-,N/A,,Clear,0,2012-10-19 09:15:00
3:35 AM,35.6,28.4,75,30.22,10.0,Calm,Calm,-,N/A,,Clear,0,2012-10-19 09:35:00
3:55 AM,35.6,28.4,75,30.21,10.0,Calm,Calm,-,N/A,,Clear,0,2012-10-19 09:55:00
4:15 AM,37.4,26.6,65,30.21,10.0,ESE,6.9,-,N/A,,Clear,120,2012-10-19 10:15:00
4:35 AM,37.4,24.8,60,30.20,10.0,South,8.1,-,N/A,,Clear,170,2012-10-19 10:35:00
4:55 AM,37.4,28.4,70,30.19,10.0,SE,6.9,-,N/A,,Clear,130,2012-10-19 10:55:00
5:35 AM,39.2,26.6,61,30.20,10.0,East,3.5,-,N/A,,Clear,90,2012-10-19 11:35:00
5:55 AM,39.2,23.0,52,30.20,10.0,South,3.5,-,N/A,,Clear,180,2012-10-19 11:55:00
6:15 AM,37.4,24.8,60,30.20,10.0,SSE,4.6,-,N/A,,Clear,160,2012-10-19 12:15:00
6:35 AM,35.6,26.6,70,30.20,10.0,East,3.5,-,N/A,,Clear,80,2012-10-19 12:35:00
6:52 AM,33.8,26.6,75,30.19,10.0,Calm,Calm,-,N/A,,Partly Cloudy,0,2012-10-19 12:52:00
7:52 AM,37.4,24.8,60,30.20,15.0,Calm,Calm,-,N/A,,Scattered Clouds,0,2012-10-19 13:52:00
8:55 AM,42.8,28.4,57,30.20,15.0,ESE,3.5,-,N/A,,Scattered Clouds,120,2012-10-19 14:55:00
9:51 AM,46.4,28.4,50,30.19,15.0,SE,4.6,-,N/A,,Partly Cloudy,130,2012-10-19 15:51:00
10:47 AM,53.6,26.6,35,30.19,15.0,East,9.2,-,N/A,,Partly Cloudy,90,2012-10-19 16:47:00
11:54 AM,55.4,28.4,36,30.10,15.0,ESE,4.6,-,N/A,,Partly Cloudy,120,2012-10-19 17:54:00
12:52 PM,57.2,33.8,41,30.14,15.0,Variable,4.6,-,N/A,,Scattered Clouds,0,2012-10-19 18:52:00
1:47 PM,60.8,33.8,36,30.11,15.0,Variable,4.6,-,N/A,,Scattered Clouds,0,2012-10-19 19:47:00
2:50 PM,62.6,33.8,34,30.07,15.0,Variable,4.6,-,N/A,,Scattered Clouds,0,2012-10-19 20:50:00
3:49 PM,64.4,33.8,32,30.05,-9999.0,Variable,4.6,-,N/A,,Mostly Cloudy,0,2012-10-19 21:49:00
4:53 PM,62.6,33.8,34,30.03,15.0,Variable,4.6,-,N/A,,Mostly Cloudy,0,2012-10-19 22:53:00
5:50 PM,60.8,30.2,31,30.02,15.0,Variable,5.8,-,N/A,,Mostly Cloudy,0,2012-10-19 23:50:00
6:48 PM,57.2,33.8,41,30.01,15.0,Variable,4.6,-,N/A,,Scattered Clouds,0,2012-10-20 00:48:00
7:59 PM,50.0,35.6,58,30.00,15.0,Calm,Calm,-,N/A,,Partly Cloudy,0,2012-10-20 01:59:00
8:48 PM,48.2,37.4,66,29.99,15.0,Calm,Calm,-,N/A,,Partly Cloudy,0,2012-10-20 02:48:00
9:15 PM,48.2,39.2,71,29.99,10.0,Calm,Calm,-,N/A,,Clear,0,2012-10-20 03:15:00
9:35 PM,48.2,37.4,66,29.99,10.0,Calm,Calm,-,N/A,,Clear,0,2012-10-20 03:35:00
9:55 PM,48.2,35.6,62,29.98,10.0,Calm,Calm,-,N/A,,Clear,0,2012-10-20 03:55:00
10:35 PM,46.4,37.4,71,29.98,10.0,Calm,Calm,-,N/A,,Clear,0,2012-10-20 04:35:00
10:55 PM,44.6,37.4,76,29.98,10.0,Calm,Calm,-,N/A,,Clear,0,2012-10-20 04:55:00
11:15 PM,46.4,35.6,66,29.97,10.0,SSE,3.5,-,N/A,,Clear,160,2012-10-20 05:15:00
11:35 PM,42.8,35.6,76,29.97,10.0,ENE,3.5,-,N/A,,Clear,70,2012-10-20 05:35:00
11:55 PM,42.8,35.6,76,29.97,10.0,Calm,Calm,-,N/A,,Clear,0,2012-10-20 05:55:00